This demonstration page uses our WeatherBlox Daily Observations layout. Learn more.

Left ArrowRight Arrow

39.51506, -84.39828

Hourly Observations for November 13, 2020

Temp ( °F °C ) Dew Point ( °F °C ) Humidity (%) Winds ( mph kmh ) Pressure ( in mb ) Visibility ( mi km ) Precip ( " mm )
12:15 am 00:15 Clear 31 -0.3 31 -0.6 98 98 Calm 30.07 1018 10 16.0934 0 0
12:35 am 00:35 Clear 33 0.4 32 0.2 99 99 Calm 30.06 1018 10 16.0934 0 0
12:55 am 00:55 Clear 32 0 32 -0.2 99 99 Calm 30.08 1018 10 16.0934 0 0
1:15 am 01:15 Clear 32 -0.1 32 -0.2 99 99 Calm 30.08 1018 10 16.0934 0 0
1:35 am 01:35 Clear 31 -0.3 31 -0.5 99 99 Calm 30.08 1018 10 16.0934 0 0
1:55 am 01:55 Clear 32 -0.1 32 -0.2 99 99 Calm 30.09 1019 7 11.26538 0 0
2:15 am 02:15 Clear 32 0.2 32 0.1 99 99 Calm 30.08 1019 7 11.26538 0 0
2:35 am 02:35 Partly Cloudy 33 0.6 33 0.5 99 99 Calm 30.08 1019 10 16.0934 0 0
2:55 am 02:55 Mostly Cloudy 33 0.8 33 0.4 97 97 Calm 30.08 1019 10 16.0934 0 0
3:15 am 03:15 Mostly Cloudy 35 1.4 34 1.1 98 98 Calm 30.07 1018 10 16.0934 0 0
3:35 am 03:35 Partly Cloudy 35 1.7 35 1.5 99 99 Calm 30.07 1018 7 11.26538 0 0
3:55 am 03:55 Mostly Cloudy 36 2 35 1.8 99 99 Calm 30.06 1018 7 11.26538 0 0
4:15 am 04:15 Cloudy 35 1.9 35 1.7 99 99 Calm 30.08 1019 10 16.0934 0 0
4:35 am 04:35 Mostly Cloudy 36 2.4 36 2.2 99 99 Calm 30.08 1019 10 16.0934 0 0
4:55 am 04:55 Cloudy 37 2.7 36 2.2 97 97 Calm 30.08 1019 10 16.0934 0 0
5:15 am 05:15 Cloudy 37 2.7 36 2.4 98 98 Calm 30.09 1019 10 16.0934 0 0
5:35 am 05:35 Cloudy 37 2.7 36 2.3 97 97 Calm 30.09 1019 10 16.0934 0 0
5:55 am 05:55 Mostly Cloudy 37 2.9 36 2.4 97 97 Calm 30.09 1019 10 16.0934 0 0
6:15 am 06:15 Partly Cloudy 37 2.9 37 2.5 97 97 Calm 30.1 1019 10 16.0934 0 0
6:35 am 06:35 Cloudy 35 1.7 35 1.4 98 98 Calm 30.1 1019 7 11.26538 0 0
6:55 am 06:55 Partly Cloudy with Mist and Fog 35 1.5 35 1.5 100 100 Calm 30.11 1020 5 8.0467 0 0
7:15 am 07:15 Clear with Mist and Fog 34 1 N/A N/A Calm 30.11 1020 3 4.82802 0 0
7:35 am 07:35 Mostly Cloudy with Mist and Fog 34 1 N/A N/A Calm 30.11 1020 1.5 2.41401 0 0
7:55 am 07:55 Sunny with Mist and Fog 34 1 N/A N/A Calm 30.13 1020 2 3.21868 0 0
8:15 am 08:15 Hazy 34 1 N/A N/A Calm 30.13 1020 4 6.43736 0 0
8:35 am 08:35 Hazy 36 2 N/A N/A Calm 30.14 1021 5 8.0467 0 0
8:55 am 08:55 Sunny 40 4.3 38 3.6 95 95 Calm 30.13 1020 7 11.26538 0 0
9:15 am 09:15 Sunny 42 5.5 38 3.4 87 87 Calm 30.14 1021 10 16.0934 0 0
9:35 am 09:35 Sunny 45 7.2 39 3.7 79 79 WSW 5 7 30.14 1021 10 16.0934 0 0
9:55 am 09:55 Sunny 46 8 40 4.3 78 78 Calm 30.14 1021 10 16.0934 0 0
10:15 am 10:15 Sunny 50 10.2 39 3.8 65 65 NNW 6 9 30.14 1021 10 16.0934 0 0
10:35 am 10:35 Sunny 53 11.4 37 3 57 57 N 10 17 30.14 1021 10 16.0934 0 0
10:55 am 10:55 Sunny 53 11.7 38 3.3 57 57 N 13 20 30.13 1020 10 16.0934 0 0
11:15 am 11:15 Sunny 54 12.1 38 3.5 56 56 N 10 17 30.14 1021 10 16.0934 0 0
11:35 am 11:35 Sunny 54 12.2 38 3.5 56 56 NNE 8 13 30.14 1021 10 16.0934 0 0
11:55 am 11:55 Sunny 54 12.3 38 3.2 54 54 N 7 11 30.13 1020 10 16.0934 0 0
12:15 pm 12:15 Sunny 55 13 38 3.1 51 51 NNW 8 13 30.13 1020 10 16.0934 0 0
12:35 pm 12:35 Sunny 56 13.2 37 2.6 49 49 NNW 14 22 30.14 1021 10 16.0934 0 0
12:55 pm 12:55 Sunny 56 13.2 37 2.8 50 50 NNW 13 20 30.13 1020 10 16.0934 0 0
1:15 pm 13:15 Partly Cloudy 57 13.8 37 2.9 48 48 NW 10 17 30.13 1020 10 16.0934 0 0
1:35 pm 13:35 Sunny 56 13.5 35 1.9 46 46 NNW 17 28 30.13 1020 10 16.0934 0 0
1:55 pm 13:55 Sunny 56 13.6 35 1.7 45 45 NW 15 24 30.13 1020 10 16.0934 0 0
2:15 pm 14:15 Sunny 56 13.5 34 1.2 43 43 NNW 14 22 30.14 1021 10 16.0934 0 0
2:35 pm 14:35 Sunny 56 13.1 37 2.8 50 50 NNW 14 22 30.14 1021 10 16.0934 0 0
2:55 pm 14:55 Sunny 54 12.4 39 3.8 56 56 NNW 16 26 30.15 1021 10 16.0934 0 0
3:15 pm 15:15 Sunny 53 11.7 36 2.2 52 52 NW 12 19 30.15 1021 10 16.0934 0 0
3:35 pm 15:35 Sunny 52 11.1 35 1.6 52 52 NNW 12 19 30.17 1022 10 16.0934 0 0
3:55 pm 15:55 Sunny 51 10.4 31 -0.8 46 46 NNW 13 20 30.19 1022 10 16.0934 0 0
4:15 pm 16:15 Sunny 50 9.8 30 -1 47 47 N 13 20 30.19 1022 10 16.0934 0 0
4:35 pm 16:35 Sunny 49 9.3 32 0.2 53 53 NNW 9 15 30.19 1022 10 16.0934 0 0
4:55 pm 16:55 Sunny 48 8.7 32 -0.2 54 54 NNW 9 15 30.19 1022 10 16.0934 0 0
5:15 pm 17:15 Sunny 45 7.4 31 -0.4 58 58 N 7 11 30.2 1023 10 16.0934 0 0
5:35 pm 17:35 Clear 45 7.2 32 -0.1 60 60 N 3 6 30.2 1023 10 16.0934 0 0
5:55 pm 17:55 Clear 44 6.9 32 0 62 62 Calm 30.2 1023 10 16.0934 0 0
6:15 pm 18:15 Clear 41 4.9 34 1.2 77 77 Calm 30.21 1023 10 16.0934 0 0
6:35 pm 18:35 Clear 39 3.9 34 1 82 82 Calm 30.21 1023 10 16.0934 0 0
6:55 pm 18:55 Clear 37 3 34 1 87 87 Calm 30.23 1024 10 16.0934 0 0
7:15 pm 19:15 Clear 37 2.5 33 0.4 86 86 Calm 30.23 1024 10 16.0934 0 0
7:35 pm 19:35 Clear 36 2.1 33 0.8 91 91 Calm 30.22 1023 10 16.0934 0 0
7:55 pm 19:55 Clear 35 1.8 33 0.4 91 91 Calm 30.23 1024 10 16.0934 0 0
8:15 pm 20:15 Clear 34 1 31 -0.3 91 91 Calm 30.24 1024 10 16.0934 0 0
8:35 pm 20:35 Clear 34 0.9 32 0.2 95 95 Calm 30.24 1024 10 16.0934 0 0
8:55 pm 20:55 Clear 33 0.5 32 -0.2 95 95 Calm 30.24 1024 10 16.0934 0 0
9:15 pm 21:15 Clear 33 0.8 31 -0.3 92 92 Calm 30.24 1024 10 16.0934 0 0
9:35 pm 21:35 Clear 31 -0.6 29 -1.6 93 93 Calm 30.26 1025 10 16.0934 0 0
9:55 pm 21:55 Clear 30 -1.1 29 -1.8 95 95 Calm 30.26 1025 10 16.0934 0 0
10:15 pm 22:15 Clear 30 -1.1 29 -1.4 98 98 Calm 30.25 1024 10 16.0934 0 0
10:35 pm 22:35 Clear 29 -1.5 29 -1.8 98 98 ENE 3 6 30.25 1024 10 16.0934 0 0
10:55 pm 22:55 Clear 30 -1.3 29 -1.8 96 96 NE 3 6 30.25 1024 10 16.0934 0 0
11:15 pm 23:15 Clear 30 -1.2 29 -1.8 96 96 ENE 5 7 30.25 1024 10 16.0934 0 0
11:35 pm 23:35 Clear 29 -1.5 29 -1.9 97 97 Calm 30.25 1024 10 16.0934 0 0
11:55 pm 23:55 Clear 29 -1.5 29 -1.8 98 98 NE 3 6 30.25 1024 10 16.0934 0 0

Powered by AerisWeather